Regional Weather Roundup
Issued by NWS

Home | Current Version | Previous Version | Text Only | Print | Product List | Glossary On
Versions: 1 2 3 4 5 6 7 8 9 10 11 12 13 14 15 16 17 18 19 20 21 22 23 24 25 26 27 28 29 30 31 32 33 34 35 36 37 38 39 40 41 42 43 44 45 46 47 48 49 50
000
ASPQ40 PGUM 251312
RWRPQ
WEATHER ROUNDUP FOR THE MARIANAS AND MICRONESIA
NATIONAL WEATHER SERVICE TIYAN GU
1100 PM CHST TUE APR 25 2017

GUZ001>004-251400-
MARIANA ISLANDS-

CITY           SKY/WX    TMP DP  RH WIND       PRES   REMARKS
GUAM AIRPORT   LGT RAIN  79  77  94 NE10      29.95S FOG
ANDERSEN AFB   LGT RAIN  77  73  88 SE8       29.96S
ROTA AIRPORT   NOT AVBL
TINIAN AP      NOT AVBL
SAIPAN AP      HVY RAIN  75  75 100 E16       29.96R FOG

$$

PMZ161-251400-
REPUBLIC OF PALAU-

CITY           SKY/WX    TMP DP  RH WIND       PRES   REMARKS
KOROR AP       MOCLDY    82  77  83 SW5       29.82R HX  91
KOROR WSO      PTCLDY    84  77  79 SW7       29.84R HX  94

$$

PMZ171>174-251400-
FEDERATED STATES OF MICRONESIA-

CITY           SKY/WX    TMP DP  RH WIND       PRES   REMARKS
YAP AIRPORT    CLOUDY    82  77  83 SE8       29.83S HX  91
CHUUK AP       PTCLDY    82  75  78 VRB6      29.86F
POHNPEI AP     NOT AVBL
POHNPEI WSO    CLOUDY    82  77  83 E9        29.90F HX  91
KOSRAE AP      NOT AVBL

$$

PMZ181-251400-
REPUBLIC OF THE MARSHALL ISLANDS-

CITY           SKY/WX    TMP DP  RH WIND       PRES   REMARKS
KWAJALEIN AP   PTCLDY    82  73  74 E14       29.87F
MAJURO AP      NOT AVBL
MAJURO WSO     MOCLDY    82  75  78 E9        29.84

$$




USA.gov is the U.S. government's official web portal to all federal, state and local government web resources and services.